User: anonymous
Location: NJAA Observatory
(40.6819°N, 74.8979°W)
Time: 04:16:23
(UTC-04:00)
Language:

USA 129 - Orbit

View from above orbital plane
View from above orbital plane
View from above satellite
View from above satellite

Ground track
Ground track

The orbit data is extracted from the following two-line orbital elements,

1 24680U 96072A   14107.83896040 0.00060500  00000-0  28554-3 0    06
2 24680  97.5289 164.6639 0320615 257.9270 102.0728 15.35131313    02
Epoch (UTC): 17 April 2014 20:08:06
Eccentricity: 0.0320615
inclination: 97.5289°
perigee height: 241 km
apogee height: 680 km
right ascension of ascending node: 164.6639°
argument of perigee: 257.9270°
revolutions per day: 15.35131313
mean anomaly at epoch: 102.0728°
orbit number at epoch: 0

The dashed part of the orbit path shows where the satellite is in the earth's shadow,  

DLR